Heat Index [SAI AWOS/ASOS Display]_________FAA Disclaimer: "Not for use in aviation at this time______________" Untitled Document
Auglaize County Neil Armstrong Airport (AXV)
170
23:04
16/08/24
10
14
N/A
30.03
2300
912
79(F), 26(C)
77(F), 25(C)
83 F
94%
CLR
10
N/A
N/A
N/A
23:04 zulu Wind 170 at 10 Knots, Gusting 14 Knots, Altimeter 30.03
METAR KAXV 242304Z AUTO 17010G14KT 10SM CLR 26/25 A3003 A02
METAR:
FAA Disclaimer--Advisory Use ONLY, not for flight info-- 3/04/2009: Welcome to the Neil Armstong AXV Graphical AWOS Display, if you find this information useful, please call the airport manager at 419-753-2810. New URL for AWOS smartphone display is http://www.saiawos2.com/AXV
INFO:
Wind Direction:
Wind Speed:
Wind Gust:
Wind Variable:
Altimeter:
Dens Alt:
Elev:
Temp:
Dwpt:
Heat Index
Rel Humidity:
Ceiling:
Visibility:
Prsnt Wea:
PCPN:
Remarks:
How to read the WebPage